GSMFY EGKA-EGKA

Flight info

Callsign GSMFY
Flight time 0h 24m
Altitude 3000
Route GWC
Aircraft C152/L-SFG/C

Departure

Time 2026-05-04 05:07
Airport Brighton City Airport (EGKA)

Arrival

Time 2026-05-04 05:31
Airport Brighton City Airport (EGKA)
Time Latitude Longitude Altitude Speed Heading
2026-05-04 04:51 50.83426 -0.29089 9 ft 0 kts 253°
2026-05-04 05:00 50.83475 -0.29032 9 ft 11 kts 73°
2026-05-04 05:01 50.83499 -0.28902 8 ft 13 kts 75°
2026-05-04 05:01 50.83565 -0.28808 5 ft 16 kts 348°
2026-05-04 05:01 50.83646 -0.28902 7 ft 15 kts 304°
2026-05-04 05:01 50.83703 -0.29032 8 ft 14 kts 306°
2026-05-04 05:02 50.83758 -0.29156 11 ft 15 kts 305°
2026-05-04 05:02 50.83839 -0.29319 11 ft 21 kts 333°
2026-05-04 05:02 50.83931 -0.29345 10 ft 5 kts 360°
2026-05-04 05:02 50.83939 -0.29344 10 ft 0 kts 41°
2026-05-04 05:06 50.83213 -0.29958 159 ft 73 kts 204°
2026-05-04 05:06 50.82712 -0.30280 299 ft 79 kts 205°
2026-05-04 05:06 50.82204 -0.30617 466 ft 81 kts 203°
2026-05-04 05:07 50.81639 -0.30943 607 ft 86 kts 202°
2026-05-04 05:07 50.81568 -0.30984 634 ft 85 kts 202°
2026-05-04 05:09 50.80406 -0.34696 1280 ft 80 kts 258°
2026-05-04 05:09 50.80295 -0.35535 1401 ft 80 kts 259°
2026-05-04 05:10 50.80140 -0.36376 1529 ft 78 kts 254°
2026-05-04 05:10 50.79933 -0.37206 1634 ft 81 kts 248°
2026-05-04 05:10 50.79646 -0.37943 1764 ft 80 kts 237°
2026-05-04 05:10 50.79305 -0.38654 1859 ft 82 kts 234°
2026-05-04 05:11 50.78897 -0.39281 1957 ft 83 kts 220°
2026-05-04 05:11 50.78521 -0.39930 2057 ft 81 kts 244°
2026-05-04 05:11 50.78378 -0.40471 2114 ft 80 kts 255°
2026-05-04 05:11 50.78264 -0.41333 2230 ft 79 kts 261°
2026-05-04 05:12 50.78188 -0.42199 2321 ft 81 kts 266°
2026-05-04 05:12 50.78173 -0.43089 2416 ft 81 kts 271°
2026-05-04 05:12 50.78176 -0.43982 2514 ft 82 kts 272°
2026-05-04 05:12 50.78206 -0.44873 2622 ft 81 kts 274°
2026-05-04 05:13 50.78287 -0.45745 2720 ft 81 kts 282°
2026-05-04 05:13 50.78468 -0.46592 2821 ft 81 kts 291°
2026-05-04 05:13 50.78643 -0.47436 2914 ft 81 kts 282°
2026-05-04 05:13 50.78761 -0.48305 3006 ft 81 kts 284°
2026-05-04 05:14 50.78936 -0.49152 3104 ft 81 kts 290°
2026-05-04 05:14 50.79153 -0.49950 3227 ft 78 kts 293°
2026-05-04 05:14 50.79368 -0.50763 3306 ft 81 kts 289°
2026-05-04 05:14 50.79477 -0.51579 3440 ft 75 kts 256°
2026-05-04 05:15 50.79060 -0.52072 3492 ft 80 kts 189°
2026-05-04 05:15 50.78514 -0.52170 3596 ft 79 kts 188°
2026-05-04 05:15 50.77948 -0.52214 3671 ft 82 kts 184°
2026-05-04 05:15 50.77384 -0.52129 3757 ft 82 kts 172°
2026-05-04 05:16 50.76818 -0.51961 3840 ft 82 kts 171°
2026-05-04 05:16 50.76432 -0.51386 3921 ft 88 kts 101°
2026-05-04 05:16 50.76548 -0.50402 3958 ft 88 kts 87°
2026-05-04 05:16 50.76616 -0.49445 4030 ft 90 kts 82°
2026-05-04 05:17 50.76718 -0.48461 4081 ft 92 kts 81°
2026-05-04 05:17 50.76856 -0.47442 4087 ft 98 kts 78°
2026-05-04 05:17 50.77028 -0.46391 4125 ft 97 kts 75°
2026-05-04 05:17 50.77218 -0.45376 4173 ft 96 kts 75°
2026-05-04 05:18 50.77420 -0.44370 4228 ft 95 kts 77°
2026-05-04 05:18 50.77488 -0.43340 4300 ft 92 kts 86°
2026-05-04 05:18 50.77578 -0.42300 4156 ft 112 kts 82°
2026-05-04 05:18 50.77684 -0.41303 4249 ft 100 kts 81°
2026-05-04 05:19 50.77808 -0.40223 4129 ft 109 kts 81°
2026-05-04 05:19 50.77904 -0.39034 4058 ft 109 kts 87°
2026-05-04 05:19 50.77951 -0.37883 4063 ft 104 kts 86°
2026-05-04 05:19 50.77997 -0.36735 4057 ft 103 kts 89°
2026-05-04 05:20 50.77999 -0.35628 4065 ft 101 kts 93°
2026-05-04 05:20 50.77956 -0.34505 4027 ft 104 kts 96°
2026-05-04 05:20 50.77889 -0.33381 4044 ft 101 kts 98°
2026-05-04 05:20 50.77806 -0.32275 4052 ft 100 kts 98°
2026-05-04 05:21 50.77743 -0.31180 4053 ft 101 kts 95°
2026-05-04 05:21 50.77705 -0.30068 4064 ft 101 kts 93°
2026-05-04 05:21 50.77721 -0.28956 4072 ft 101 kts 87°
2026-05-04 05:21 50.77781 -0.27841 4043 ft 104 kts 88°
2026-05-04 05:22 50.77801 -0.26709 4058 ft 101 kts 92°
2026-05-04 05:22 50.77767 -0.25585 4040 ft 103 kts 96°
2026-05-04 05:22 50.77675 -0.24472 4044 ft 102 kts 102°
2026-05-04 05:22 50.77533 -0.23373 4021 ft 104 kts 103°
2026-05-04 05:23 50.77395 -0.22267 4031 ft 102 kts 103°
2026-05-04 05:23 50.77245 -0.21167 4028 ft 102 kts 104°
2026-05-04 05:23 50.77070 -0.20084 4017 ft 102 kts 107°
2026-05-04 05:23 50.76859 -0.19012 4032 ft 100 kts 111°
2026-05-04 05:24 50.76746 -0.17944 4021 ft 102 kts 89°
2026-05-04 05:24 50.76977 -0.16896 4011 ft 102 kts 50°
2026-05-04 05:24 50.77590 -0.16385 3946 ft 103 kts
2026-05-04 05:24 50.78276 -0.16461 3724 ft 97 kts 348°
2026-05-04 05:25 50.78942 -0.16574 3384 ft 98 kts 358°
2026-05-04 05:25 50.79616 -0.16784 2973 ft 101 kts 339°
2026-05-04 05:25 50.80264 -0.17136 2641 ft 96 kts 338°
2026-05-04 05:25 50.80907 -0.17491 2273 ft 95 kts 340°
2026-05-04 05:26 50.81537 -0.17785 2012 ft 87 kts 344°
2026-05-04 05:26 50.82128 -0.18054 1936 ft 89 kts 341°
2026-05-04 05:26 50.82700 -0.18348 1899 ft 87 kts 341°
2026-05-04 05:26 50.83272 -0.18609 1908 ft 81 kts 343°
2026-05-04 05:27 50.83795 -0.18825 1954 ft 80 kts 343°
2026-05-04 05:28 50.86198 -0.24072 1087 ft 91 kts 296°
2026-05-04 05:29 50.86456 -0.24924 983 ft 86 kts 293°
2026-05-04 05:29 50.86677 -0.25837 1012 ft 89 kts 287°
2026-05-04 05:29 50.86665 -0.26821 1053 ft 93 kts 253°
2026-05-04 05:29 50.86288 -0.27655 956 ft 98 kts 222°
2026-05-04 05:31 50.83633 -0.29681 12 ft 42 kts 200°
2026-05-04 05:31 50.83401 -0.29825 9 ft 31 kts 201°
2026-05-04 05:32 50.83257 -0.29910 11 ft 9 kts 174°
2026-05-04 05:32 50.83252 -0.29835 9 ft 8 kts 64°
2026-05-04 05:32 50.83282 -0.29741 7 ft 11 kts 64°
2026-05-04 05:33 50.83347 -0.29537 6 ft 10 kts 64°
2026-05-04 05:33 50.83374 -0.29441 8 ft 10 kts 85°
2026-05-04 05:33 50.83398 -0.29374 9 ft 6 kts 56°
2026-05-04 05:33 50.83419 -0.29318 10 ft 7 kts 63°
2026-05-04 05:34 50.83445 -0.29197 10 ft 16 kts 73°
2026-05-04 05:34 50.83454 -0.29048 8 ft 10 kts 150°
2026-05-04 05:34 50.83386 -0.29033 8 ft 8 kts 185°
2026-05-04 05:34 50.83371 -0.29046 9 ft 0 kts 315°